Weather past 2 weeks in Port-aux-Francais, Kerguelen Islands

Now
54 °F

Cool.


Feels Like: 50 °F
Forecast: 40 / 47 °F
Wind: 16 mph from West

Location: Port-Aux-Francais Iles Kerguelen

Current Time: Feb 1, 2015 at 7:12:14 PM

Latest Report: Feb 1, 2015 at 6:00 PM


Visibility: N/A

Pressure: 29.85 "Hg

Humidity: 62%

Dew point: 41 °F

Location of Port-aux-FrancaisLocation

Historic Weather in Port-aux-Francais — Graph

°F

Port-aux-Francais temperature yesterday

Maximum temperature yesterday: 46 °F (at 1:00 PM)
Minimum temperature yesterday: 39 °F (at 8:00 AM)
Average temperature yesterday: 41 °F

Past Weeks' High & Low Weather Summary

 TemperatureHumidityPressure
High63 °F (Jan 20, 2:00 PM)92% (Jan 23, 12:00 AM)30.36 "Hg (Jan 23, 12:00 AM)
Low33 °F (Jan 18, 5:00 AM)38% (Jan 20, 2:00 PM)29.00 "Hg (Jan 24, 7:00 PM)
Average45 °F68%29.61 "Hg
* Reported Jan 17 6:00 PM — Feb 1 6:00 PM, Port-aux-Francais, Weather by CustomWeather, © 2014

Note: Actual official high and low records may vary slightly from our data, if they occured in-between our weather recording intervals... More about our weather records

Advertising

Port-aux-Francais weather history for previous 24 hours

 ConditionsComfort  
Time TempWeatherWind HumidityBarometerVisibility
6:00 PM
Feb 1
54 °FCool.16 mph62%29.85 "HgN/A
5:00 PM54 °FCool.26 mph65%29.87 "HgN/A
4:00 PM58 °FRefreshingly cool.48 mph58%29.87 "HgN/A
3:00 PM58 °FRefreshingly cool.31 mph59%29.89 "HgN/A
2:00 PM59 °FRefreshingly cool.24 mph57%29.91 "HgN/A
1:00 PM60 °FRefreshingly cool.23 mph56%29.92 "HgN/A
12:00 PM59 °FRefreshingly cool.22 mph54%29.91 "HgN/A
11:00 AM57 °FRefreshingly cool.17 mph52%29.93 "HgN/A
10:00 AM48 °FCool.21 mph63%29.96 "HgN/A
9:00 AM46 °FCool.21 mph65%29.97 "HgN/A
8:00 AM43 °FQuite cool.15 mph66%30.01 "HgN/A
7:00 AM41 °FQuite cool.13 mph61%30.03 "HgN/A
6:00 AM40 °FChilly.9 mph68%30.04 "HgN/A
5:00 AM38 °FChilly.9 mph69%30.05 "HgN/A
4:00 AM36 °FChilly.9 mph73%30.05 "HgN/A
3:00 AM36 °FChilly.10 mph70%30.06 "HgN/A
1:00 AM39 °FChilly.9 mph65%30.05 "HgN/A
12:00 AM39 °FChilly.8 mph65%30.06 "HgN/A
11:00 PM
Jan 31
40 °FChilly.12 mph64%30.05 "HgN/A
10:00 PM40 °FChilly.10 mph62%30.05 "HgN/A
9:00 PM40 °FQuite cool.18 mph59%30.03 "HgN/A
8:00 PM40 °FQuite cool.21 mph62%30.02 "HgN/A
7:00 PM41 °FQuite cool.21 mph58%30.00 "HgN/A
Weather by CustomWeather, © 2014

See weather overviewHow to use our weather pages